• In Deutschland
  • Länderverzeichnis
  • Für 7 Tage
  • Wassertemperatur
  • Satellitenkarten
  • Wetterkarte
  • Widgets
  • user-avatar
    Anmelden

    Stündliche Wetter Mingachevir

    Heute, 23 Juli, Sonntag

    Zeit Temperatur Niederschläge Wind Luftdruck Luftfeuchtigkeit
    00:00 +29°C° 0 mm 1 m/S 749 mmHg 37%
    01:00 +29°C° 0 mm 1 m/S 749 mmHg 38%
    02:00 +29°C° 0 mm 1 m/S 749 mmHg 38%
    03:00 +28°C° 0 mm 1 m/S 749 mmHg 38%
    04:00 +29°C° 0 mm 1 m/S 749 mmHg 37%
    05:00 +29°C° 0 mm 2 m/S 749 mmHg 37%
    06:00 +29°C° 0 mm 2 m/S 749 mmHg 36%
    07:00 +31°C° 0 mm 2 m/S 749 mmHg 32%
    08:00 +34°C° 0 mm 3 m/S 748 mmHg 27%
    09:00 +36°C° 0 mm 3 m/S 748 mmHg 22%
    10:00 +37°C° 0 mm 3 m/S 747 mmHg 21%
    11:00 +38°C° 0 mm 3 m/S 747 mmHg 19%
    12:00 +40°C° 0 mm 2 m/S 746 mmHg 18%
    13:00 +40°C° 0 mm 2 m/S 746 mmHg 17%
    14:00 +41°C° 0 mm 2 m/S 746 mmHg 17%
    15:00 +41°C° 0 mm 2 m/S 745 mmHg 16%
    16:00 +41°C° 0 mm 2 m/S 745 mmHg 17%
    17:00 +41°C° 0 mm 2 m/S 745 mmHg 18%
    18:00 +41°C° 0 mm 2 m/S 745 mmHg 19%
    19:00 +39°C° 0 mm 2 m/S 746 mmHg 21%
    20:00 +37°C° 0 mm 3 m/S 747 mmHg 23%
    21:00 +35°C° 0 mm 3 m/S 747 mmHg 25%
    22:00 +34°C° 0 mm 2 m/S 747 mmHg 29%
    23:00 +32°C° 0 mm 2 m/S 748 mmHg 32%

    Morgen, 24 Juli, Montag

    Zeit Temperatur Niederschläge Wind Luftdruck Luftfeuchtigkeit
    00:00 +31°C° 0 mm 1 m/S 748 mmHg 35%
    01:00 +30°C° 0 mm 2 m/S 748 mmHg 37%
    02:00 +29°C° 0 mm 2 m/S 748 mmHg 39%
    03:00 +29°C° 0 mm 2 m/S 748 mmHg 41%
    04:00 +29°C° 0 mm 2 m/S 748 mmHg 42%
    05:00 +29°C° 0 mm 2 m/S 748 mmHg 42%
    06:00 +29°C° 0 mm 2 m/S 748 mmHg 43%
    07:00 +31°C° 0 mm 2 m/S 748 mmHg 39%
    08:00 +32°C° 0 mm 2 m/S 748 mmHg 35%
    09:00 +35°C° 0 mm 2 m/S 748 mmHg 31%
    10:00 +36°C° 0 mm 2 m/S 748 mmHg 29%
    11:00 +38°C° 0 mm 3 m/S 747 mmHg 26%
    12:00 +40°C° 0 mm 4 m/S 747 mmHg 24%
    13:00 +41°C° 0 mm 4 m/S 746 mmHg 24%
    14:00 +41°C° 0 mm 5 m/S 746 mmHg 23%
    15:00 +42°C° 0 mm 5 m/S 746 mmHg 23%
    16:00 +41°C° 0 mm 6 m/S 746 mmHg 24%
    17:00 +40°C° 0 mm 6 m/S 745 mmHg 26%
    18:00 +40°C° 0 mm 6 m/S 745 mmHg 27%
    19:00 +38°C° 0 mm 6 m/S 746 mmHg 32%
    20:00 +35°C° 0 mm 5 m/S 746 mmHg 36%
    21:00 +33°C° 0 mm 5 m/S 747 mmHg 41%
    22:00 +32°C° 0 mm 4 m/S 747 mmHg 44%
    23:00 +30°C° 0 mm 3 m/S 747 mmHg 47%

    übermorgen, 25 Juli, Dienstag

    Zeit Temperatur Niederschläge Wind Luftdruck Luftfeuchtigkeit
    00:00 +29°C° 0 mm 3 m/S 747 mmHg 50%
    01:00 +28°C° 0 mm 2 m/S 747 mmHg 51%
    02:00 +28°C° 0 mm 2 m/S 747 mmHg 52%
    03:00 +27°C° 0 mm 1 m/S 747 mmHg 53%
    04:00 +28°C° 0 mm 1 m/S 747 mmHg 51%
    05:00 +28°C° 0 mm 1 m/S 747 mmHg 50%
    06:00 +28°C° 0 mm 1 m/S 747 mmHg 48%
    07:00 +30°C° 0 mm 1 m/S 747 mmHg 43%
    08:00 +32°C° 0 mm 2 m/S 746 mmHg 39%
    09:00 +35°C° 0 mm 2 m/S 746 mmHg 34%
    10:00 +36°C° 0 mm 2 m/S 746 mmHg 31%
    11:00 +37°C° 0 mm 2 m/S 745 mmHg 28%
    12:00 +38°C° 0 mm 2 m/S 745 mmHg 25%
    13:00 +39°C° 0,1 mm 2 m/S 744 mmHg 24%
    14:00 +40°C° 0,1 mm 2 m/S 744 mmHg 23%
    15:00 +40°C° 0,1 mm 2 m/S 743 mmHg 22%
    16:00 +40°C° 0,1 mm 2 m/S 744 mmHg 22%
    17:00 +40°C° 0,1 mm 2 m/S 744 mmHg 23%
    18:00 +40°C° 0,1 mm 2 m/S 744 mmHg 23%
    19:00 +37°C° 0 mm 2 m/S 744 mmHg 27%
    20:00 +35°C° 0 mm 3 m/S 745 mmHg 30%
    21:00 +33°C° 0 mm 3 m/S 746 mmHg 34%
    22:00 +31°C° 0,1 mm 3 m/S 746 mmHg 36%
    23:00 +31°C° 0,1 mm 2 m/S 746 mmHg 39%

    26 Juli, Mittwoch

    Zeit Temperatur Niederschläge Wind Luftdruck Luftfeuchtigkeit
    00:00 +30°C° 0,1 mm 2 m/S 746 mmHg 42%
    01:00 +29°C° 0 mm 2 m/S 746 mmHg 43%
    02:00 +29°C° 0 mm 1 m/S 746 mmHg 44%
    03:00 +28°C° 0 mm 1 m/S 746 mmHg 45%
    04:00 +29°C° 0 mm 2 m/S 746 mmHg 44%
    05:00 +29°C° 0 mm 2 m/S 746 mmHg 43%
    06:00 +30°C° 0 mm 2 m/S 746 mmHg 42%
    07:00 +31°C° 0 mm 3 m/S 746 mmHg 37%
    08:00 +34°C° 0 mm 3 m/S 746 mmHg 32%
    09:00 +36°C° 0 mm 4 m/S 746 mmHg 26%
    10:00 +37°C° 0 mm 3 m/S 746 mmHg 25%
    11:00 +39°C° 0 mm 2 m/S 745 mmHg 23%
    12:00 +40°C° 0 mm 2 m/S 745 mmHg 21%
    13:00 +40°C° 0,1 mm 2 m/S 745 mmHg 21%
    14:00 +41°C° 0,1 mm 2 m/S 745 mmHg 20%
    15:00 +42°C° 0,1 mm 2 m/S 745 mmHg 19%
    16:00 +41°C° 0,1 mm 2 m/S 745 mmHg 20%
    17:00 +41°C° 0,1 mm 1 m/S 745 mmHg 21%
    18:00 +41°C° 0,1 mm 1 m/S 745 mmHg 22%
    19:00 +39°C° 0 mm 2 m/S 746 mmHg 25%
    20:00 +36°C° 0 mm 3 m/S 747 mmHg 29%
    21:00 +34°C° 0 mm 3 m/S 748 mmHg 33%
    22:00 +33°C° 0 mm 3 m/S 748 mmHg 35%
    23:00 +33°C° 0 mm 3 m/S 748 mmHg 36%

    27 Juli, Donnerstag

    Zeit Temperatur Niederschläge Wind Luftdruck Luftfeuchtigkeit
    00:00 +31°C° 0 mm 3 m/S 748 mmHg 38%
    01:00 +30°C° 0 mm 2 m/S 748 mmHg 39%
    02:00 +30°C° 0 mm 2 m/S 748 mmHg 40%
    03:00 +29°C° 0 mm 1 m/S 749 mmHg 41%
    04:00 +30°C° 0 mm 2 m/S 749 mmHg 40%
    05:00 +30°C° 0 mm 2 m/S 749 mmHg 39%
    06:00 +31°C° 0 mm 2 m/S 749 mmHg 39%
    07:00 +34°C° 0 mm 2 m/S 749 mmHg 34%
    08:00 +36°C° 0 mm 3 m/S 749 mmHg 30%
    09:00 +38°C° 0 mm 3 m/S 749 mmHg 25%
    10:00 +39°C° 0 mm 2 m/S 749 mmHg 24%
    11:00 +40°C° 0 mm 2 m/S 749 mmHg 22%
    12:00 +41°C° 0 mm 2 m/S 749 mmHg 21%
    13:00 +42°C° 0 mm 2 m/S 748 mmHg 20%
    14:00 +43°C° 0 mm 2 m/S 748 mmHg 20%
    15:00 +43°C° 0 mm 2 m/S 748 mmHg 19%
    16:00 +44°C° 0 mm 3 m/S 748 mmHg 19%
    17:00 +43°C° 0 mm 3 m/S 748 mmHg 20%
    18:00 +43°C° 0 mm 3 m/S 749 mmHg 21%
    19:00 +41°C° 0 mm 4 m/S 749 mmHg 24%
    20:00 +39°C° 0 mm 5 m/S 750 mmHg 27%
    21:00 +35°C° 0 mm 5 m/S 750 mmHg 30%
    22:00 +35°C° 0 mm 4 m/S 751 mmHg 32%
    23:00 +34°C° 0 mm 4 m/S 751 mmHg 33%

    28 Juli, Freitag

    Zeit Temperatur Niederschläge Wind Luftdruck Luftfeuchtigkeit
    00:00 +33°C° 0 mm 3 m/S 751 mmHg 34%
    01:00 +31°C° 0 mm 2 m/S 751 mmHg 35%
    02:00 +31°C° 0 mm 2 m/S 751 mmHg 36%
    03:00 +30°C° 0 mm 2 m/S 752 mmHg 36%
    04:00 +31°C° 0 mm 2 m/S 752 mmHg 36%
    05:00 +31°C° 0 mm 1 m/S 752 mmHg 36%
    06:00 +31°C° 0 mm 1 m/S 752 mmHg 36%
    07:00 +33°C° 0 mm 1 m/S 752 mmHg 32%
    08:00 +35°C° 0 mm 1 m/S 752 mmHg 28%
    09:00 +37°C° 0 mm 1 m/S 752 mmHg 24%
    10:00 +40°C° 0 mm 2 m/S 751 mmHg 22%
    11:00 +41°C° 0 mm 2 m/S 751 mmHg 21%
    12:00 +42°C° 0 mm 2 m/S 751 mmHg 19%
    13:00 +44°C° 0 mm 3 m/S 751 mmHg 18%
    14:00 +45°C° 0 mm 3 m/S 750 mmHg 18%
    15:00 +45°C° 0 mm 3 m/S 750 mmHg 17%
    16:00 +45°C° 0 mm 4 m/S 750 mmHg 18%
    17:00 +44°C° 0 mm 4 m/S 750 mmHg 19%
    18:00 +45°C° 0 mm 5 m/S 751 mmHg 19%
    19:00 +41°C° 0 mm 5 m/S 751 mmHg 24%
    20:00 +39°C° 0 mm 5 m/S 752 mmHg 28%
    21:00 +36°C° 0 mm 5 m/S 752 mmHg 33%
    22:00 +35°C° 0 mm 5 m/S 752 mmHg 36%
    23:00 +34°C° 0 mm 4 m/S 753 mmHg 38%
    Mehr zeigen